Regional Weather Roundup
Issued by NWS

Home | Current Version | Previous Version | Text Only | Print | Product List | Glossary Off
Versions: 1 2 3 4 5 6 7 8 9 10 11 12 13 14 15 16 17 18 19 20 21 22 23 24 25 26 27 28 29 30 31 32 33 34 35 36 37 38 39 40 41 42 43 44 45 46 47 48 49 50

000
ASUS43 KMKX 231011
RWRWI

WISCONSIN REGIONAL WEATHER ROUNDUP
NATIONAL WEATHER SERVICE MILWAUKEE/SULLIVAN WI
500 AM CDT SUN APR 23 2017

NOTE: "FAIR" INDICATES FEW OR NO CLOUDS BELOW 12,000 FEET WITH NO
SIGNIFICANT WEATHER AND/OR OBSTRUCTIONS TO VISIBILITY.

WIZ001-002-006>008-014>016-023>028-231100-
NORTHWEST WISCONSIN

CITY           SKY/WX    TMP DP  RH WIND       PRES   REMARKS
SUPERIOR ARPT  DRIZZLE   40  36  85 NE8       30.15R WCI  35
ASHLAND        CLOUDY    40  38  93 NE12      30.14R WCI  33
HAYWARD        CLOUDY    44  37  76 NE10      30.09R
SIREN          CLOUDY    45  37  73 CALM      30.10R
CUMBERLAND     CLOUDY    45  36  70 NE8       30.06S
RICE LAKE      CLOUDY    49  36  59 NW3       30.06F
CHETEK         CLOUDY    47  36  65 CALM      30.05S
LADYSMITH      PTCLDY    46  37  69 N10       30.07S
EAU CLAIRE     CLOUDY    45  38  76 S5        30.05S
MENOMONIE      CLOUDY    47  36  64 CALM      30.05F
NEW RICHMOND   CLEAR     46  35  63 W3        30.06R
OSCEOLA        PTCLDY    46  37  72 CALM      30.09S
$$

WIZ003>005-009-010-017-018-231100-
NORTH CENTRAL WISCONSIN

CITY           SKY/WX    TMP DP  RH WIND       PRES   REMARKS
MANITOWISH WTR CLOUDY    42  40  92 N8        30.06R
ARBOR VITAE    CLOUDY    43  38  83 N8        30.05R
WOODRUFF       CLOUDY    43  38  83 N8        30.05R
RHINELANDER    CLOUDY    45  34  65 NW3       30.04R
EAGLE RIVER    MOCLDY    41  35  77 N7        30.04R
LAND O LAKES   CLOUDY    43  38  82 N8        30.07R
PHILLIPS       MOCLDY    43  37  78 N6        30.05R
TOMAHAWK       CLOUDY    39  32  77 CALM      30.05R
MEDFORD        CLOUDY    46  34  61 SW3       30.03S
MERRILL        CLOUDY    37  33  85 CALM      30.04S
$$

WIZ029-030-035-036-043>047-231100-
CENTRAL WISCONSIN

CITY           SKY/WX    TMP DP  RH WIND       PRES   REMARKS
WAUSAU         CLOUDY    49  33  54 SW7       30.03S
MOSINEE        PTCLDY    45  32  61 SW8       30.06S
MARSHFIELD     CLOUDY    42  31  64 SW7       30.05S
STEVENS POINT  PTCLDY    37  31  76 SW6       30.07S WCI  33
WAUPACA        PTCLDY    43  30  60 CALM      30.07S
WAUTOMA        CLEAR     33  30  88 CALM      30.09S
WISC RAPIDS    CLOUDY    44  32  62 SW5       30.08S
CAMP DOUGLAS   CLEAR     49  29  46 W9        30.08S
$$

WIZ011>013-019>022-031-037>040-048>050-231100-
NORTHEAST WISCONSIN

CITY           SKY/WX    TMP DP  RH WIND       PRES   REMARKS
ANTIGO         PTCLDY    40  32  73 SW6       30.04S
SHAWANO        CLOUDY    43  33  69 CALM      30.05S
OCONTO         CLOUDY    46  31  57 SW6       30.04R
STURGEON BAY   CLOUDY    51  33  50 SW12      30.04R
GREEN BAY      CLEAR     45  36  70 S3        30.06S
MANITOWOC      CLEAR     50  29  44 W9        30.07S
APPLETON       CLEAR     46  28  49 SW10      30.06R
CLINTONVILLE   CLOUDY    45  30  57 SW5       30.06R
OSHKOSH        CLEAR     47  31  53 SW5       30.07S
$$

WIZ032>034-041-042-053>061-231100-
SOUTHWEST WISCONSIN

CITY           SKY/WX    TMP DP  RH WIND       PRES   REMARKS
LA CROSSE      CLEAR     47  41  80 SE9       30.10S
SPARTA         CLEAR     31  29  94 CALM      30.11R
VIROQUA        CLEAR     46  30  55 SW6       30.11S
BOSCOBEL       CLEAR     34  32  92 CALM      30.13S
PRAIRIE DU CHI CLEAR     38  32  80 CALM      30.13S
PLATTEVILLE    CLEAR     40  34  79 S5        30.13F
$$

WIZ056-057-062-063-064-067-068-231100-
SOUTH CENTRAL WISCONSIN

CITY           SKY/WX    TMP DP  RH WIND       PRES   REMARKS
REEDSBURG      CLEAR     37  36  96 CALM      30.11S
BARABOO/DELLS  CLEAR     41  30  66 SW5       30.10S
LONE ROCK      CLEAR     35  32  88 CALM      30.13S
MINERAL POINT  CLEAR     46  28  49 SW3       30.12S
MADISON        CLEAR     38  33  82 S5        30.11F WCI  34
MIDDLETON      CLEAR     39  33  80 CALM      30.12S
WATERTOWN      CLEAR     37  31  81 CALM      30.11S
MONROE         CLEAR     43  30  61 SW9       30.13S
JANESVILLE     CLEAR     36  36 100 CALM      30.13S
$$

WIZ051-052-058>065-066-070>072-231100-
SOUTHEAST WISCONSIN

CITY           SKY/WX    TMP DP  RH WIND       PRES   REMARKS
MILWAUKEE      CLEAR     45  23  42 CALM      30.11F
WAUKESHA       CLEAR     36  27  69 CALM      30.13S
MILWAUKEE/TIMM CLEAR     36  27  69 CALM      30.12S
RACINE         CLEAR     43  27  53 W7        30.13S
KENOSHA        CLEAR     39  32  76 SW5       30.13R
FOND DU LAC    CLEAR     47  31  53 SW9       30.09S
SHEBOYGAN      CLEAR     41  30  65 SW7       30.08S
WEST BEND      CLEAR     46  25  42 SW5       30.10S
JUNEAU         CLEAR     40  32  74 CALM      30.12S
$$

LSZ147-162-231100-
LAKE SUPERIOR

STATION/POSITION TIME  TEMP    WIND        PRES    WAVE
                       AIR SEA DIR/SP/G            HT/PER
                 (UTC) (F)     (DEG/KT/KT) (MB)    (FT/S)
DEVILS ISLAND    1000   34      20/ 13/ 14 1022.1R
PORT WING        0930   38      40/ 13/ 16 1021.0R
SAXON HARBOR     0930   39      40/ 19/ 23 1020.0S
$$

LMZ867-665-643>646-231100-
LAKE MICHIGAN

STATION/POSITION TIME  TEMP    WIND        PRES    WAVE
                       AIR SEA DIR/SP/G            HT/PER
                 (UTC) (F)     (DEG/KT/KT) (MB)    (FT/S)
CHAMBERS ISLAND  0940   40        CALM     1016.6R
N MID LAKE BUOY  0950   41 37  300/  8/ 10 1018.1R   2/ 4
NORTHPORT PIER   0940   48     270/  5/  8 1016.6S
SISTER BAY       0936   44     290/  9/  9   N/A
KEWAUNEE LAKESHO 0948   49     280/  6/  9 1017.0S
SHEBOYGAN LAKESH 1000   48     250/ 11/ 12 1018.7R
PORT WASHINGTON  0930   49     270/  7/ 10 1020.0F
MILWAUKEE LAKESH 0950   51     240/ 11/ 12   N/A
KENOSHA   LAKESH 1000   44     250/  5/  6 1020.3
$$

TC  - TEMPERATURE IN CELSIUS
VSB - VISIBILITY IN STATUTE MILES
WCI - WIND CHILL INDEX
HX  - HEAT INDEX




USA.gov is the U.S. government's official web portal to all federal, state and local government web resources and services.